レモン彗星

C/2020 W5 ( Lemmon )

English version
Home page
Updated on March 4, 2025

---------------------------------------------------------------------

・ プロフィール

発見日 2020年11月20日
発見光度 21.6等
発見者 Mt. Lemmon Survey

・ 軌道要素

Epoch 2024 Oct. 17.0 TT = JDT 2460600.5                                         
T 2020 Nov. 30.48048 TT                                 Pike                    
q   3.3694055            (2000.0)            P               Q                  
z  -0.0006028      Peri.   24.56892     +0.21889605     -0.12558818             
 +/-0.0000439      Node    75.44581     +0.64459370     -0.72586856             
e   1.0020310      Incl.   88.62633     +0.73251859     +0.67627098             
From 56 observations 2020 Oct. 30-2021 Jan. 8, mean residual 0".5.              

・ 光度変化

        m1 = 14.0 + 5 logΔ + 10.0 log r

---------------------------------------------------------------------

軌道要素はM.P.E.C. 2025-A144に掲載されたものです。
光度グラフはComet for Windowsで作成したものです。

---------------------------------------------------------------------

Copyright(C) Seiichi Yoshida (comet@aerith.net). All rights reserved.